GEFSNGP_con_cape1000_192.txt.gz
Probability
0 0 0 0 0 0 0 0 0 0 0 3 26 32 48 65 65 61 71 71 74 71 74 74 71 74 71 68 71 65 58 58 61 65 61 58 52 61 61 48 39 52 48 48
0 0 0 0 0 0 0 0 0 0 3 13 32 42 52 71 68 71 71 74 65 61 68 65 65 61 61 65 65 58 52 52 55 48 48 45 42 45 45 48 45 48 48 39
0 0 0 0 0 0 0 6 6 6 10 19 42 42 55 74 74 71 71 74 71 71 61 61 58 55 61 61 61 55 48 45 48 48 39 32 32 39 35 32 39 42 35 32
0 0 0 3 3 3 6 6 10 10 19 23 35 39 61 65 71 71 71 74 65 61 61 58 55 48 48 52 45 39 42 39 35 39 29 29 35 35 42 35 35 39 42 29
0 0 0 3 3 3 6 3 13 10 23 29 48 52 55 61 65 68 71 68 55 58 52 48 52 48 42 39 39 35 32 32 32 32 29 29 32 32 32 29 32 35 32 29
0 0 0 0 6 10 10 13 23 26 35 48 52 35 48 55 52 45 48 39 45 39 39 42 45 48 42 39 35 32 26 26 35 35 32 32 26 23 32 32 29 29 23 23
0 0 0 13 16 10 0 13 26 32 42 42 42 55 48 55 45 42 39 35 45 39 39 42 45 45 45 45 39 32 32 32 32 29 32 35 32 32 32 32 29 23 19 19
0 0 3 10 16 19 39 45 48 45 39 45 52 52 48 48 42 39 32 32 39 42 45 45 45 45 42 35 35 35 32 29 32 26 23 19 29 29 23 26 29 23 19 19
6 10 19 19 32 39 39 45 45 42 45 42 39 42 42 39 42 32 29 29 35 32 32 32 32 35 32 23 26 29 29 26 23 23 23 23 23 19 16 23 23 19 23 13
10 16 13 19 26 29 29 35 35 39 32 35 32 42 35 26 23 23 19 29 29 29 29 26 26 26 26 23 19 23 19 16 19 19 19 19 19 16 13 16 16 16 16 16
13 16 13 23 23 26 19 26 23 26 23 32 39 32 29 23 19 19 19 23 23 23 23 16 16 13 16 16 16 13 13 13 16 13 13 13 10 10 16 10 10 10 13 10
13 23 16 26 19 13 13 16 19 23 23 29 35 32 23 19 16 16 16 16 16 16 13 13 10 6 10 13 13 13 10 10 10 6 6 6 6 3 0 0 0 0 0 0
13 13 13 16 10 10 16 13 19 19 19 23 29 16 16 10 10 13 13 13 13 13 10 6 6 6 6 6 3 6 6 3 6 6 6 3 3 3 3 0 0 0 0 0
6 13 13 10 6 10 13 13 16 16 16 16 10 16 10 10 10 10 13 13 13 6 3 3 3 3 3 3 3 3 3 0 0 3 3 3 3 3 3 3 0 0 0 0
13 13 10 6 10 13 13 10 13 13 10 6 3 3 3 3 6 6 6 6 3 3 3 3 3 3 0 0 0 0 0 0 0 0 0 0 3 3 3 3 0 0 0 0
3 6 10 6 10 13 13 10 10 10 3 3 3 3 3 6 6 6 3 3 3 3 3 3 3 0 0 0 0 0 0 0 0 0 0 0 0 0 3 3 3 0 0 0
6 6 6 6 10 13 6 6 6 6 3 3 3 3 3 0 3 3 3 0 3 3 3 3 0 0 0 0 0 0 0 0 0 0 0 0 0 0 0 0 3 3 3 0
3 6 6 6 10 3 3 3 3 3 3 3 3 3 0 0 0 0 0 0 0 0 0 0 0 0 0 0 0 0 0 0 0 0 0 0 0 0 0 0 0 0 3 0
0 0 3 3 3 3 0 0 0 0 0 0 0 0 0 0 0 0 0 0 0 0 0 0 0 0 0 0 0 0 0 0 0 0 0 0 0 0 0 0 0 0 0 0
0 0 0 0 0 0 0 0 0 0 0 0 0 0 0 0 0 0 0 0 0 0 0 0 0 0 0 0 0 0 0 0 0 0 0 0 0 0 0 0 0 0 0 0
0 3 3 3 0 0 0 0 0 0 0 0 0 0 0 0 0 0 0 0 0 0 0 0 0 0 0 0 0 0 0 0 0 0 0 0 0 0 0 0 0 0 0 0
3 6 3 3 3 3 3 3 0 0 0 0 0 0 0 0 0 0 0 0 0 0 0 0 0 0 0 0 0 0 0 0 0 0 0 0 0 0 0 0 0 0 0 0
3 3 3 3 0 0 0 0 0 0 0 0 0 0 0 0 0 0 0 0 0 0 0 0 0 0 0 0 0 0 0 0 0 0 0 0 0 0 0 0 0 0 0 0
0 3 3 3 0 0 0 0 0 0 0 0 0 0 0 0 0 0 0 0 0 0 0 0 0 0 0 0 0 0 0 0 0 0 0 0 0 0 0 0 0 0 0 0
0 0 3 3 3 0 0 0 0 0 0 0 0 0 0 0 0 0 0 0 0 0 0 0 0 0 0 0 0 0 0 0 0 0 0 0 0 0 0 0 0 0 0 0
0 0 0 3 0 0 0 0 0 0 0 0 0 0 0 0 0 0 0 0 0 0 0 0 0 0 0 0 0 0 0 0 0 0 0 0 0 0 0 0 0 0 0 0
0 0 0 0 0 0 0 0 0 0 0 0 0 0 0 0 0 0 0 0 0 0 0 0 0 0 0 0 0 0 0 0 0 0 0 0 0 0 0 0 0 0 0 0

GEFSNGP_con_cape1000_198.txt.gz
Probability
0 0 0 0 0 0 0 0 0 0 10 16 26 32 42 58 65 65 74 77 81 84 87 84 81 77 77 74 74 74 74 71 71 68 71 74 74 71 68 61 61 68 65 61
0 0 0 0 0 0 0 0 0 3 10 26 32 42 52 65 71 71 71 77 77 81 87 74 74 74 71 68 65 71 71 65 65 61 61 65 71 61 58 55 48 48 48 45
0 0 0 0 0 0 0 3 3 6 23 29 29 45 61 65 68 71 68 74 74 74 77 81 74 71 68 65 65 68 65 58 58 58 48 48 48 52 52 52 48 48 48 39
3 0 0 0 3 3 3 3 10 13 23 29 35 55 61 58 74 74 71 77 74 74 81 77 68 65 65 61 65 61 58 52 58 45 42 48 48 52 52 55 52 48 45 45
3 0 0 0 3 3 3 6 13 19 23 35 42 61 61 65 71 74 68 74 77 77 74 71 65 65 61 55 55 52 45 45 45 45 45 45 48 52 48 48 48 42 39 32
0 0 3 3 0 3 6 10 23 26 35 39 45 55 58 77 74 71 74 71 71 71 68 71 68 68 61 52 45 42 42 42 39 42 45 42 48 45 48 42 42 39 29 29
0 0 3 10 6 0 0 29 32 35 45 58 68 71 81 74 68 68 68 65 61 65 65 61 55 55 45 42 42 42 42 35 39 39 39 42 42 39 39 35 35 29 23 19
0 0 3 26 23 23 65 68 55 45 48 61 71 68 71 68 68 61 61 58 55 52 52 52 52 48 45 42 39 39 35 35 35 35 35 35 35 32 29 29 26 23 26 19
16 23 45 39 58 71 71 68 55 52 48 52 58 61 58 61 58 52 48 52 52 48 48 52 52 48 42 42 39 35 32 35 32 29 26 19 23 23 19 19 23 19 19 19
35 42 42 42 48 58 52 55 52 52 45 48 55 58 55 52 48 48 45 48 48 45 48 48 42 39 39 39 32 29 26 23 23 16 16 16 16 16 16 16 16 16 16 19
32 42 39 39 55 52 48 48 48 42 45 48 52 45 45 45 45 42 45 42 39 39 42 39 39 35 35 32 29 23 16 13 16 13 10 6 6 6 6 6 6 10 10 10
26 42 45 42 35 35 42 42 39 42 39 42 45 42 35 39 35 39 42 42 32 26 19 26 29 32 29 26 19 16 16 16 16 16 6 6 6 6 3 0 0 0 0 0
32 35 35 32 32 32 32 35 35 39 35 35 35 32 32 35 29 35 39 32 26 23 23 19 19 13 13 13 10 23 16 16 13 6 6 6 6 6 6 3 0 0 0 0
26 26 29 26 29 32 35 32 35 32 32 32 32 29 29 26 23 23 19 19 13 13 16 16 10 10 10 10 13 16 10 3 3 6 3 6 6 6 6 6 3 3 0 0
19 19 23 23 29 29 29 32 26 26 32 26 26 19 16 19 19 16 10 10 10 13 16 13 10 6 6 6 6 6 0 0 0 0 0 3 3 3 3 3 3 6 3 3
16 16 16 16 19 16 19 19 16 16 23 23 13 13 13 13 10 10 10 10 13 10 13 16 10 10 10 6 6 3 0 0 0 0 0 0 0 0 0 0 3 3 3 3
6 10 10 10 13 13 16 16 13 10 6 6 6 6 10 6 6 6 6 6 13 16 16 13 10 10 6 6 0 0 0 0 0 0 0 0 0 0 0 0 0 0 0 0
6 10 10 10 10 13 10 10 10 10 3 3 3 6 3 3 3 3 3 3 6 10 6 10 6 3 3 3 0 0 0 0 0 0 0 0 0 0 0 0 0 0 0 0
6 6 10 10 10 16 10 10 10 6 3 3 3 3 3 3 3 3 3 3 3 0 0 3 0 0 0 0 0 0 0 0 0 0 0 0 0 0 0 0 0 0 0 0
6 6 10 10 10 10 13 10 6 3 3 3 3 3 3 3 3 3 0 0 0 3 3 3 0 0 0 0 0 0 0 0 0 0 0 0 0 0 0 0 0 0 0 0
6 6 10 10 13 6 13 6 6 3 3 3 0 0 0 0 0 0 0 0 0 0 0 0 0 0 0 0 0 0 0 0 0 0 0 0 0 0 0 0 0 0 0 0
3 3 6 6 10 6 3 3 3 0 0 0 0 0 0 0 0 0 0 0 0 0 0 0 0 0 0 0 0 0 0 0 0 0 0 0 0 0 0 0 0 0 0 0
3 6 3 6 3 3 3 0 0 0 0 0 0 0 0 0 0 0 0 0 0 0 0 0 0 0 0 0 0 0 0 0 0 0 0 0 0 0 0 0 0 0 0 0
6 10 10 3 3 3 3 0 0 0 0 0 0 0 0 0 0 0 0 0 0 0 0 0 0 0 0 0 0 0 0 0 0 0 0 0 0 0 0 0 0 0 0 0
6 6 6 3 3 0 3 0 0 0 0 0 0 0 0 0 0 0 0 0 0 0 0 0 0 0 0 0 0 0 0 0 0 0 0 0 0 0 0 0 0 0 0 0
10 10 10 10 3 3 0 3 3 3 0 0 0 0 0 0 0 0 0 0 0 0 0 0 0 0 0 0 0 0 0 0 0 0 0 0 0 0 0 0 0 0 0 0
0 10 10 6 0 0 0 0 0 0 0 0 0 0 0 0 0 0 0 0 0 0 0 0 0 0 0 0 0 0 0 0 0 0 0 0 0 0 0 0 0 0 0 0

GEFSNGP_con_cape1000_204.txt.gz
Probability
0 0 0 0 0 0 0 0 0 0 6 16 23 29 48 58 65 71 65 65 61 65 61 55 48 55 55 55 52 48 48 48 45 42 39 35 23 26 29 29 29 26 19 16
0 3 3 3 0 0 0 0 0 6 6 6 16 26 55 65 68 65 61 68 58 58 55 58 55 55 52 52 48 45 45 45 35 35 35 32 23 23 19 19 19 16 16 10
0 0 3 3 0 0 0 3 3 10 16 16 35 39 48 58 61 65 65 65 58 55 52 52 48 52 55 45 39 42 39 35 35 35 32 32 26 19 19 19 13 13 10 10
0 0 0 3 0 3 10 13 13 19 35 39 35 45 48 58 61 61 55 58 58 55 48 45 45 48 42 39 35 35 35 39 39 32 32 23 19 16 16 13 13 10 10 10
0 0 0 0 0 6 16 23 23 35 29 35 42 45 52 52 55 55 61 55 58 45 42 42 42 42 35 32 32 32 32 32 32 29 29 16 16 13 13 13 13 10 10 10
0 0 0 0 10 10 13 19 29 35 26 45 39 45 52 52 52 52 55 48 48 45 39 39 35 32 32 32 32 32 32 32 23 23 19 19 13 13 13 13 10 10 10 10
0 0 0 6 16 3 6 19 32 32 32 45 35 48 45 48 48 42 42 42 45 42 39 32 29 29 29 32 29 26 23 23 23 16 16 16 10 10 10 10 6 6 10 10
0 0 0 6 29 29 19 19 35 35 32 42 45 48 55 45 45 42 42 42 39 39 32 26 26 16 13 13 13 19 13 13 13 13 13 13 13 10 6 6 6 6 6 6
0 0 3 16 26 26 26 23 39 39 45 48 52 52 52 45 45 45 42 39 39 35 23 16 19 13 13 16 13 10 10 10 10 6 6 6 6 6 6 6 6 6 3 3
0 6 10 10 19 29 26 23 26 35 45 45 45 42 39 39 35 35 35 32 32 29 19 16 13 13 6 10 10 13 13 6 6 6 6 6 6 6 6 6 3 3 3 3
0 3 3 6 19 23 19 23 29 42 39 35 32 29 29 26 26 32 29 23 23 16 16 13 13 10 10 3 3 6 6 6 6 6 6 6 0 0 0 3 3 3 3 3
0 0 3 3 6 16 13 16 23 35 39 35 29 29 23 23 19 23 16 19 19 16 13 10 3 6 3 3 3 3 3 6 6 6 3 0 0 0 0 0 0 0 3 3
0 3 0 10 10 10 16 19 29 29 26 26 26 23 19 19 16 10 6 6 13 6 6 6 3 3 0 0 3 3 3 3 3 0 0 0 0 0 0 0 0 0 0 0
0 3 10 10 10 13 19 19 23 26 23 23 23 19 13 10 6 3 3 3 6 6 6 6 6 0 0 0 0 0 0 3 0 0 0 0 0 0 0 0 0 0 0 0
3 0 6 6 6 10 13 19 19 13 16 16 16 16 13 6 3 3 3 3 3 3 3 6 6 3 0 0 0 0 0 0 0 0 0 0 0 0 0 0 0 0 0 0
0 0 0 3 6 10 10 13 10 6 6 6 6 6 6 3 3 3 3 3 3 3 3 3 3 3 0 0 0 0 0 0 0 0 0 0 0 0 0 0 0 0 0 0
0 0 0 3 3 6 6 6 6 6 3 3 3 3 3 3 3 3 3 3 3 3 0 0 0 3 0 0 0 0 0 0 0 0 0 0 0 0 0 0 0 0 0 0
0 0 0 0 3 6 10 6 3 3 3 3 3 3 3 3 3 3 3 3 0 0 0 0 0 0 0 0 0 0 0 0 0 0 0 0 0 0 0 0 0 0 0 0
0 0 0 0 0 3 3 3 3 3 3 3 3 3 3 3 3 0 0 0 0 0 0 0 0 0 0 0 0 0 0 0 0 0 0 0 0 0 0 0 0 0 0 0
0 0 0 0 3 3 3 3 3 3 3 3 0 0 0 0 0 0 0 0 0 0 0 0 0 0 0 0 0 0 0 0 0 0 0 0 0 0 0 0 0 0 0 0
0 3 0 0 0 0 3 3 3 0 0 0 0 0 0 0 0 0 0 0 0 0 0 0 0 0 0 0 0 0 0 0 0 0 0 0 0 0 0 0 0 0 0 0
0 0 0 0 0 0 0 0 0 0 0 0 0 0 0 0 0 0 0 0 0 0 0 0 0 0 0 0 0 0 0 0 0 0 0 0 0 0 0 0 0 0 0 0
0 0 0 0 0 0 0 0 0 0 0 0 0 0 0 0 0 0 0 0 0 0 0 0 0 0 0 0 0 0 0 0 0 0 0 0 0 0 0 0 0 0 0 0
0 0 0 0 0 0 0 0 0 0 0 0 0 0 0 0 0 0 0 0 0 0 0 0 0 0 0 0 0 0 0 0 0 0 0 0 0 0 0 0 0 0 0 0
0 0 0 0 0 0 0 0 0 0 0 0 0 0 0 0 0 0 0 0 0 0 0 0 0 0 0 0 0 0 0 0 0 0 0 0 0 0 0 0 0 0 0 0
0 0 0 0 0 0 0 0 0 0 0 0 0 0 0 0 0 0 0 0 0 0 0 0 0 0 0 0 0 0 0 0 0 0 0 0 0 0 0 0 0 0 0 0
0 0 0 0 0 0 0 0 0 0 0 0 0 0 0 0 0 0 0 0 0 0 0 0 0 0 0 0 0 0 0 0 0 0 0 0 0 0 0 0 0 0 0 0

GEFSNGP_con_cape1000_210.txt.gz
Probability
0 0 0 0 0 0 0 0 0 0 10 13 16 26 35 42 35 42 45 45 42 45 39 35 39 35 26 35 39 42 42 42 39 32 32 32 29 23 19 13 13 6 6 6
0 0 0 0 0 0 0 0 0 0 6 13 23 29 35 45 39 42 42 45 48 45 45 35 39 32 29 35 35 39 39 32 32 32 29 29 26 23 13 13 13 10 10 10
0 0 0 0 3 3 3 3 3 3 10 13 19 29 35 42 39 52 55 52 48 42 29 26 32 32 39 35 39 35 32 32 32 32 29 29 23 19 16 13 13 13 10 13
0 0 0 0 0 6 6 6 6 0 6 16 16 23 35 32 42 52 58 55 48 32 32 29 32 35 35 39 35 32 32 32 32 26 26 26 19 19 13 13 13 13 13 13
0 0 0 0 0 6 10 6 6 10 13 23 29 35 39 42 48 55 52 42 35 32 32 26 32 29 29 23 23 29 29 32 29 29 23 19 13 13 13 13 13 13 13 10
0 0 0 0 0 6 3 3 13 29 39 39 35 35 39 42 45 39 39 29 29 29 32 35 32 26 16 16 19 19 19 19 19 19 16 13 6 10 10 10 10 10 6 6
0 0 0 0 3 3 3 0 16 29 42 39 29 26 26 39 29 35 32 35 32 32 32 23 23 19 16 16 16 16 16 16 16 13 10 6 6 6 6 10 10 10 6 6
0 0 0 3 13 3 3 3 16 26 39 39 35 35 32 35 35 35 35 35 32 29 23 19 13 16 16 16 13 13 13 10 10 6 3 3 3 6 6 6 6 10 6 6
0 0 0 6 10 6 3 16 26 32 32 23 32 32 32 35 32 32 29 26 23 23 19 16 13 13 13 6 6 10 10 10 6 3 3 3 3 6 6 6 6 6 6 6
0 10 13 13 19 19 19 19 39 35 29 32 29 26 32 32 29 29 26 23 19 16 19 10 10 6 6 6 6 10 10 3 3 3 3 3 3 3 6 6 6 6 6 3
3 6 10 13 13 19 19 32 35 29 29 26 26 23 26 26 32 32 29 19 16 16 13 6 3 3 0 0 0 0 0 3 3 3 3 3 0 0 0 3 0 0 3 3
0 0 10 10 10 13 26 26 32 26 26 23 23 19 23 26 26 26 19 16 6 6 6 3 0 0 0 0 0 0 0 0 0 0 0 0 0 0 0 0 0 0 0 0
0 0 3 3 6 10 16 16 23 23 16 19 13 19 19 19 19 13 10 6 6 6 3 3 0 0 0 0 0 0 0 0 0 0 0 0 0 0 0 0 0 0 0 0
0 0 0 0 6 10 10 10 10 13 13 10 10 13 10 13 10 3 3 3 3 3 3 3 3 3 0 0 0 0 0 0 0 0 0 0 0 0 0 0 0 0 0 0
0 0 0 0 3 6 6 6 6 3 10 13 13 13 13 6 3 3 3 3 3 3 3 3 0 0 0 0 0 0 0 0 0 0 0 0 0 0 0 0 0 0 0 0
0 0 0 0 3 6 6 3 3 3 6 10 10 10 3 3 3 3 3 3 3 3 3 0 0 0 0 0 0 0 0 0 0 0 0 0 0 0 0 0 0 0 0 0
0 0 0 0 0 3 3 3 3 3 6 6 3 3 3 3 3 3 3 3 3 3 0 0 0 0 0 0 0 0 0 0 0 0 0 0 0 0 0 0 0 0 0 0
0 0 0 0 0 0 0 3 3 6 3 3 3 3 3 3 3 3 3 3 3 0 0 0 0 0 0 0 0 0 0 0 0 0 0 0 0 0 0 0 0 0 0 0
0 0 0 0 0 0 0 0 0 3 3 3 3 3 3 3 3 3 3 3 3 0 0 0 0 0 0 0 0 0 0 0 0 0 0 0 0 0 0 0 0 0 0 0
0 0 0 0 0 0 0 0 0 3 3 3 3 3 3 3 3 3 3 3 3 0 0 0 0 0 0 0 0 0 0 0 0 0 0 0 0 0 0 0 0 0 0 0
0 0 0 0 0 0 0 0 0 3 3 3 3 3 3 3 3 3 0 0 0 0 0 0 0 0 0 0 0 0 0 0 0 0 0 0 0 0 0 0 0 0 0 0
0 0 0 0 0 0 0 3 3 3 3 3 3 3 3 3 0 0 0 0 0 0 0 0 0 0 0 0 0 0 0 0 0 0 0 0 0 0 0 0 0 0 0 0
0 0 0 0 0 3 3 0 0 0 0 0 0 0 0 0 0 0 0 0 0 0 0 0 0 0 0 0 0 0 0 0 0 0 0 0 0 0 0 0 0 0 0 0
0 0 0 0 0 0 0 0 0 0 0 0 0 0 0 0 0 0 0 0 0 0 0 0 0 0 0 0 0 0 0 0 0 0 0 0 0 0 0 0 0 0 0 0
0 0 0 0 0 0 0 0 0 0 0 0 0 0 0 0 0 0 0 0 0 0 0 0 0 0 0 0 0 0 0 0 0 0 0 0 0 0 0 0 0 0 0 0
0 0 0 0 0 0 0 0 0 0 0 0 0 0 0 0 0 0 0 0 0 0 0 0 0 0 0 0 0 0 0 0 0 0 0 0 0 0 0 0 0 0 0 0
0 0 0 0 0 0 0 0 0 0 0 0 0 0 0 0 0 0 0 0 0 0 0 0 0 0 0 0 0 0 0 0 0 0 0 0 0 0 0 0 0 0 0 0

GEFSNGP_con_cape1000_216.txt.gz
Probability
0 0 0 0 0 0 0 0 0 0 3 16 26 32 45 58 77 71 77 77 71 77 77 74 68 65 58 55 52 45 42 42 42 48 48 48 48 48 42 35 35 42 42 39
0 0 0 0 0 0 0 0 0 3 10 19 26 32 45 55 74 77 74 77 74 74 77 68 65 61 61 58 58 52 45 45 45 52 42 39 39 39 39 39 39 39 39 29
0 0 0 0 0 0 0 0 3 3 16 19 32 35 45 55 68 74 71 74 74 74 68 61 65 61 65 55 52 48 45 45 42 42 39 39 39 39 39 39 39 39 26 23
0 0 0 0 6 6 6 6 13 16 23 19 29 39 45 52 65 68 68 71 71 68 71 68 58 58 58 48 48 52 45 42 39 35 35 35 39 39 39 39 39 32 23 23
0 0 0 3 10 13 13 16 19 26 29 29 32 39 45 48 58 77 68 71 68 65 65 55 52 58 55 52 52 48 42 35 29 35 32 32 29 26 26 26 26 23 19 19
0 0 0 0 16 29 26 19 26 35 39 42 45 39 32 71 77 74 65 68 65 65 55 55 55 55 52 48 48 35 29 26 23 23 23 23 19 19 23 16 19 16 16 16
0 0 0 16 32 32 13 29 52 52 52 48 74 61 74 77 71 68 68 61 61 58 55 55 55 52 48 48 35 26 26 23 23 23 19 19 16 16 13 10 10 6 6 3
0 0 3 29 29 26 55 68 65 65 65 68 71 71 74 81 68 65 55 55 55 58 55 55 52 52 45 35 26 23 26 23 23 23 16 13 13 13 10 10 6 3 3 6
0 3 45 35 48 58 68 81 81 77 74 74 71 71 74 68 68 58 58 55 55 55 52 48 48 48 35 26 26 26 23 23 23 16 13 13 10 10 6 3 3 3 3 3
29 32 45 48 58 68 81 81 81 77 71 65 65 71 68 61 55 55 55 55 52 52 42 39 35 35 32 26 26 26 29 16 13 10 10 10 6 6 6 3 3 3 3 3
39 45 48 58 58 65 68 65 65 61 61 65 65 71 58 55 55 55 52 52 45 39 35 29 29 29 19 23 26 26 16 13 10 6 6 6 3 3 3 3 3 6 6 6
29 48 48 61 65 55 61 61 61 55 55 58 68 52 48 45 42 45 45 45 42 39 35 32 23 23 19 19 16 13 13 13 10 6 6 6 3 0 0 0 0 0 0 0
48 32 48 65 55 55 61 58 52 58 61 58 48 42 35 42 42 39 42 39 39 39 42 29 23 23 13 10 10 10 10 10 13 10 3 3 3 3 0 0 0 0 0 0
26 39 48 48 48 48 52 48 52 52 48 45 42 32 32 29 42 39 42 39 39 32 26 19 19 13 10 10 10 10 10 6 6 3 3 3 3 3 3 0 0 0 0 0
23 26 32 42 42 52 52 42 39 39 39 26 26 26 23 19 29 29 32 32 35 23 19 13 10 10 13 16 10 10 10 6 6 6 6 3 3 3 0 0 0 0 0 0
16 16 23 29 42 42 42 35 32 35 29 23 23 26 19 16 19 23 29 26 23 19 19 16 13 10 16 10 6 6 6 0 0 3 0 0 0 0 0 0 0 0 0 0
23 23 23 23 19 29 29 32 32 26 23 23 19 19 16 16 16 19 26 16 16 16 10 10 6 6 6 6 6 3 0 0 0 0 0 0 0 0 0 0 0 0 0 0
13 16 19 19 19 26 29 23 16 23 23 19 16 10 16 16 13 13 13 10 10 10 6 6 3 6 3 3 6 0 0 0 0 0 0 0 0 0 0 0 0 0 0 0
6 10 13 10 19 23 13 10 10 10 13 16 13 10 19 13 10 6 10 10 6 6 3 3 0 3 3 3 0 0 0 0 0 0 0 0 0 0 0 0 0 0 0 0
3 6 10 6 6 10 6 6 6 10 13 13 10 3 10 10 10 3 3 3 3 3 3 3 3 3 3 0 0 0 0 0 0 0 0 0 0 0 0 0 0 0 0 0
0 0 0 0 3 3 3 6 6 3 3 3 3 6 6 6 6 6 3 3 3 3 0 0 3 3 0 0 0 0 0 0 0 0 0 0 0 0 0 0 0 0 0 0
3 0 3 0 0 3 3 3 0 0 0 0 0 3 6 3 6 3 3 3 3 0 3 3 3 0 0 0 0 0 0 0 0 0 0 0 0 0 0 0 0 0 0 0
3 0 0 0 0 0 3 0 0 0 0 0 0 6 3 3 3 3 3 0 0 0 0 0 0 0 0 0 0 0 0 0 0 0 0 0 0 0 0 0 0 0 0 0
3 0 0 0 0 3 6 3 0 3 3 0 6 6 6 3 3 3 3 0 0 0 0 0 0 0 0 0 0 0 0 0 0 0 0 0 0 0 0 0 0 0 0 0
0 0 0 3 0 0 6 3 3 6 6 6 6 3 3 3 3 3 0 0 0 0 0 0 0 0 0 0 0 0 0 0 0 0 0 0 0 0 0 0 0 0 0 0
0 0 0 3 0 0 0 3 6 6 6 10 6 3 3 3 0 0 0 0 0 0 0 0 0 0 0 0 0 0 0 0 0 0 0 0 0 0 0 0 0 0 0 0
0 0 0 0 3 3 6 6 6 6 6 0 3 0 0 0 0 0 0 0 0 0 0 0 0 0 0 0 0 0 0 0 0 0 0 0 0 0 0 0 0 0 0 0